Flag for China Weather past 2 weeks in Changchun, Jilin, China

Now
68 °F

Sunny.


Feels Like: 68 °F
Forecast: 68 / 84 °F
Wind: 13 mph from South

Location: Changchun Airport

Current Time: Jul 29, 2014 at 6:09:00 AM

Latest Report: Jul 29, 2014 at 5:00 AM


Visibility: 10 mi

Pressure: 29.68 "Hg

Humidity: 73%

Dew point: 59 °F

Location of ChangchunLocation

Historic Weather in Changchun — Graph

°F

Changchun temperature yesterday

Maximum temperature yesterday: 86 °F (at 1:00 PM)
Minimum temperature yesterday: 66 °F (at 1:00 AM)
Average temperature yesterday: 76 °F

Past Weeks' High & Low Weather Summary

 TemperatureHumidityPressure
High90 °F (Jul 20, 2:00 PM)100% (Jul 14, 5:00 AM)29.92 "Hg (Jul 14, 5:00 AM)
Low57 °F (Jul 25, 1:00 AM)38% (Jul 15, 3:00 PM)29.47 "Hg (Jul 23, 1:00 PM)
Average73 °F74%29.73 "Hg
* Reported Jul 14 5:00 AM — Jul 29 5:00 AM, Changchun, Weather by CustomWeather, © 2014

Note: Actual official high and low records may vary slightly from our data, if they occured in-between our weather recording intervals... More about our weather records

Advertising

Changchun weather history for previous 24 hours

 ConditionsComfort  
Time TempWeatherWind HumidityBarometerVisibility
5:00 AM
Jul 29
68 °FSunny.13 mph73%29.68 "Hg10 mi
4:00 AM68 °FPassing clouds.10 mph73%29.71 "HgN/A
3:00 AM70 °FPassing clouds.8 mph73%29.74 "HgN/A
2:00 AM72 °FPassing clouds.8 mph69%29.74 "Hg4 mi
1:00 AM70 °FFog.3 mph78%29.74 "Hg2 mi
12:00 AM72 °FFog.3 mph78%29.74 "Hg2 mi
11:00 PM
Jul 28
73 °FFog.8 mph78%29.71 "Hg2 mi
10:00 PM75 °FFog.6 mph74%29.71 "Hg2 mi
9:00 PM75 °FFog.6 mph74%29.68 "Hg2 mi
8:00 PM77 °FFog.8 mph69%29.65 "Hg2 mi
7:00 PM81 °FFog.8 mph58%29.65 "Hg2 mi
6:00 PM82 °FFog.13 mph58%29.65 "Hg3 mi
5:00 PM84 °FFog.15 mph55%29.65 "Hg3 mi
4:00 PM86 °FFog.13 mph52%29.65 "Hg3 mi
3:00 PM86 °FFog.15 mph52%29.68 "Hg3 mi
2:00 PM86 °FFog.17 mph46%29.68 "Hg3 mi
1:00 PM86 °FClear.15 mph49%29.68 "Hg4 mi
12:00 PM84 °FSunny.13 mph48%29.71 "Hg10 mi
11:00 AM82 °FSunny.17 mph48%29.71 "Hg10 mi
10:00 AM81 °FSunny.13 mph58%29.74 "Hg10 mi
9:00 AM77 °FPassing clouds.13 mph61%29.74 "HgN/A
8:00 AM75 °FSunny.10 mph65%29.77 "Hg10 mi
7:00 AM72 °FClear.8 mph73%29.77 "Hg4 mi
6:00 AM68 °FFog.8 mph83%29.77 "Hg3 mi
Weather by CustomWeather, © 2014

See weather overviewHow to use our weather pages